CES723 ZGSZ-ZGGG

Flight info

Callsign CES723
Flight time 0h 19m
Altitude 33100
Route DCT SAREX DCT POU DCT ZGGG
Aircraft A20N/M-SDE2E3FGHIJ1J3J4J5RWY/LB1

Departure

Time 2026-05-08 16:52
Airport Shenzhen Bao'an International Airport (ZGSZ)

Arrival

Time 2026-05-08 17:12
Airport Guangzhou Baiyun International Airport (ZGGG)
Time Latitude Longitude Altitude Speed Heading
2026-05-08 16:37 22.63510 113.80069 11 ft 0 kts 151°
2026-05-08 16:44 22.63509 113.80070 10 ft 0 kts 152°
2026-05-08 16:44 22.63510 113.80070 10 ft 0 kts 152°
2026-05-08 16:45 22.63529 113.80059 13 ft 7 kts 153°
2026-05-08 16:45 22.63583 113.80034 12 ft 10 kts 175°
2026-05-08 16:45 22.63612 113.80050 12 ft 0 kts 241°
2026-05-08 16:47 22.63612 113.80049 12 ft 0 kts 241°
2026-05-08 16:48 22.63606 113.80035 13 ft 10 kts 247°
2026-05-08 16:49 22.63596 113.79998 10 ft 0 kts 255°
2026-05-08 16:49 22.63589 113.79984 10 ft 6 kts 239°
2026-05-08 16:49 22.63524 113.79848 8 ft 31 kts 245°
2026-05-08 16:49 22.63473 113.79801 8 ft 6 kts 186°
2026-05-08 16:50 22.63456 113.79802 8 ft 0 kts 169°
2026-05-08 16:50 22.63455 113.79802 8 ft 1 kts 169°
2026-05-08 16:50 22.63353 113.79850 9 ft 31 kts 152°
2026-05-08 16:50 22.63086 113.79997 9 ft 53 kts 153°
2026-05-08 16:51 22.62768 113.80174 9 ft 39 kts 153°
2026-05-08 16:51 22.62528 113.80301 6 ft 18 kts 154°
2026-05-08 16:51 22.62444 113.80262 5 ft 14 kts 249°
2026-05-08 16:51 22.62417 113.80190 4 ft 16 kts 245°
2026-05-08 16:52 22.62430 113.80138 6 ft 1 kts 330°
2026-05-08 16:52 22.62684 113.80000 8 ft 89 kts 333°
2026-05-08 16:52 22.63492 113.79550 49 ft 163 kts 332°
2026-05-08 16:52 22.64550 113.78954 787 ft 181 kts 333°
2026-05-08 16:53 22.67286 113.78299 2308 ft 232 kts 16°
2026-05-08 16:53 22.68817 113.79077 3201 ft 247 kts 30°
2026-05-08 16:53 22.70248 113.79939 4006 ft 219 kts 30°
2026-05-08 16:54 22.71547 113.80724 3870 ft 215 kts 30°
2026-05-08 16:54 22.72873 113.81526 3510 ft 222 kts 30°
2026-05-08 16:54 22.74242 113.82355 3154 ft 229 kts 30°
2026-05-08 16:54 22.75699 113.83237 3012 ft 263 kts 30°
2026-05-08 16:55 22.77445 113.84299 3004 ft 311 kts 30°
2026-05-08 16:55 22.79461 113.85523 3002 ft 353 kts 30°
2026-05-08 16:55 22.81701 113.86887 3001 ft 376 kts 30°
2026-05-08 16:55 22.83920 113.88237 3052 ft 366 kts 30°
2026-05-08 16:56 22.86136 113.89553 3733 ft 358 kts 24°
2026-05-08 16:56 22.88504 113.90212 4776 ft 349 kts
2026-05-08 16:56 22.90914 113.89965 5378 ft 350 kts 343°
2026-05-08 16:56 22.93090 113.88824 5714 ft 349 kts 322°
2026-05-08 16:57 22.94741 113.86926 5898 ft 344 kts 301°
2026-05-08 16:57 22.95678 113.84644 6020 ft 319 kts 289°
2026-05-08 16:57 22.96382 113.82457 6131 ft 295 kts 285°
2026-05-08 16:57 22.96848 113.80379 6243 ft 273 kts 281°
2026-05-08 16:58 22.97240 113.78361 6367 ft 276 kts 281°
2026-05-08 16:58 22.97576 113.76320 6483 ft 274 kts 275°
2026-05-08 16:58 22.97669 113.74254 6603 ft 276 kts 271°
2026-05-08 16:58 22.97725 113.72030 6734 ft 313 kts 270°
2026-05-08 16:59 22.97782 113.69538 6863 ft 346 kts 270°
2026-05-08 16:59 22.97841 113.66850 6980 ft 363 kts 270°
2026-05-08 16:59 22.97902 113.64037 6999 ft 383 kts 270°
2026-05-08 16:59 22.97963 113.61124 6996 ft 386 kts 270°
2026-05-08 17:00 22.98025 113.58256 6994 ft 386 kts 270°
2026-05-08 17:00 22.98087 113.55303 6999 ft 386 kts 270°
2026-05-08 17:00 22.98146 113.52438 6998 ft 386 kts 270°
2026-05-08 17:00 22.98207 113.49520 7000 ft 386 kts 271°
2026-05-08 17:01 22.98266 113.46612 7002 ft 386 kts 270°
2026-05-08 17:01 22.98325 113.43705 6998 ft 386 kts 270°
2026-05-08 17:01 22.98383 113.40800 7002 ft 385 kts 271°
2026-05-08 17:01 22.98442 113.37895 6998 ft 385 kts 271°
2026-05-08 17:02 22.98500 113.34999 6900 ft 383 kts 271°
2026-05-08 17:02 22.98558 113.32143 6660 ft 371 kts 271°
2026-05-08 17:02 22.98617 113.29385 6144 ft 360 kts 271°
2026-05-08 17:02 22.98679 113.26683 5464 ft 356 kts 271°
2026-05-08 17:03 22.98723 113.24924 5203 ft 347 kts 271°
2026-05-08 17:03 22.98790 113.22483 5104 ft 286 kts 271°
2026-05-08 17:03 22.98856 113.20612 5011 ft 216 kts 273°
2026-05-08 17:03 22.99358 113.19274 4993 ft 178 kts 310°
2026-05-08 17:04 23.00395 113.18711 4800 ft 181 kts 353°
2026-05-08 17:04 23.01630 113.18970 4480 ft 182 kts 19°
2026-05-08 17:04 23.02841 113.19454 4091 ft 186 kts 20°
2026-05-08 17:04 23.04051 113.19937 3767 ft 185 kts 20°
2026-05-08 17:05 23.05256 113.20411 3450 ft 184 kts 20°
2026-05-08 17:05 23.06465 113.20880 3128 ft 188 kts 20°
2026-05-08 17:05 23.07966 113.21462 2935 ft 265 kts 20°
2026-05-08 17:05 23.09905 113.22169 2933 ft 321 kts 16°
2026-05-08 17:06 23.12071 113.22782 2826 ft 314 kts 14°
2026-05-08 17:06 23.14119 113.23336 2632 ft 293 kts 13°
2026-05-08 17:06 23.16018 113.23903 2427 ft 271 kts 18°
2026-05-08 17:06 23.17605 113.24578 2429 ft 211 kts 22°
2026-05-08 17:07 23.18794 113.25104 2444 ft 164 kts 17°
2026-05-08 17:07 23.19793 113.25463 2297 ft 144 kts 18°
2026-05-08 17:07 23.20757 113.25815 1927 ft 151 kts 17°
2026-05-08 17:07 23.21816 113.26184 1721 ft 156 kts 16°
2026-05-08 17:08 23.22814 113.26526 1496 ft 146 kts 17°
2026-05-08 17:08 23.23763 113.26849 1279 ft 139 kts 15°
2026-05-08 17:08 23.24638 113.27096 1174 ft 135 kts 12°
2026-05-08 17:08 23.25590 113.27340 1183 ft 138 kts 12°
2026-05-08 17:09 23.26509 113.27581 1124 ft 135 kts 15°
2026-05-08 17:09 23.27405 113.27851 1084 ft 133 kts 15°
2026-05-08 17:09 23.28298 113.28113 1046 ft 135 kts 14°
2026-05-08 17:09 23.29253 113.28384 891 ft 147 kts 13°
2026-05-08 17:10 23.30258 113.28650 816 ft 148 kts 13°
2026-05-08 17:10 23.31248 113.28902 813 ft 144 kts 13°
2026-05-08 17:10 23.32221 113.29153 785 ft 144 kts 13°
2026-05-08 17:10 23.33193 113.29410 741 ft 143 kts 13°
2026-05-08 17:11 23.34173 113.29670 638 ft 148 kts 13°
2026-05-08 17:11 23.35178 113.29940 534 ft 143 kts 12°
2026-05-08 17:11 23.36097 113.30178 405 ft 131 kts 12°
2026-05-08 17:11 23.36971 113.30373 273 ft 125 kts 12°
2026-05-08 17:12 23.37818 113.30603 106 ft 127 kts 12°
2026-05-08 17:12 23.38651 113.30825 55 ft 113 kts 13°
2026-05-08 17:12 23.39223 113.30968 57 ft 48 kts
2026-05-08 17:12 23.39348 113.30950 58 ft 7 kts 349°
2026-05-08 17:13 23.39442 113.30925 55 ft 20 kts 341°
2026-05-08 17:13 23.39420 113.30830 56 ft 17 kts 198°
2026-05-08 17:13 23.39253 113.30790 52 ft 38 kts 194°
2026-05-08 17:13 23.39006 113.30722 51 ft 26 kts 194°
2026-05-08 17:14 23.38943 113.30646 58 ft 16 kts 273°
2026-05-08 17:14 23.38969 113.30518 55 ft 19 kts 284°
2026-05-08 17:14 23.38992 113.30415 55 ft 11 kts 283°
2026-05-08 17:14 23.39020 113.30347 57 ft 8 kts 329°
2026-05-08 17:15 23.39073 113.30355 54 ft 0 kts 12°
2026-05-08 17:15 23.39074 113.30355 54 ft 0 kts 13°
2026-05-08 17:15 23.39079 113.30356 51 ft 2 kts 14°
2026-05-08 17:16 23.39078 113.30356 52 ft 0 kts 16°
2026-05-08 17:18 23.39074 113.30355 54 ft 0 kts 16°
2026-05-08 17:18 23.39073 113.30354 54 ft 0 kts 16°
2026-05-08 17:18 23.39078 113.30356 52 ft 1 kts 16°